GEFSSGP_prec_meanprecacc_012.txt.gz
Total_Precipitation_Accumulation
0.00 0.00 0.00 0.00 0.01 0.00 0.00 0.00 0.00 0.00 0.00 0.00 0.00 0.00 0.00 0.00 0.01 0.02 0.00 0.00 0.00 0.00 0.00 0.01 0.02 0.01 0.02 0.02 0.01 0.02 0.03 0.02 0.02 0.05 0.03 0.04 0.02 0.01 0.00 0.00 0.00 0.00 0.00 0.01 0.04 0.08 0.08 0.06 0.11
0.00 0.00 0.00 0.00 0.00 0.00 0.00 0.00 0.00 0.00 0.00 0.00 0.00 0.00 0.00 0.00 0.00 0.00 0.00 0.00 0.00 0.00 0.00 0.01 0.02 0.04 0.07 0.04 0.03 0.04 0.04 0.02 0.03 0.04 0.04 0.05 0.02 0.01 0.01 0.00 0.00 0.00 0.01 0.02 0.04 0.09 0.11 0.09 0.10
0.00 0.01 0.00 0.00 0.00 0.00 0.00 0.00 0.00 0.00 0.00 0.00 0.00 0.00 0.00 0.00 0.00 0.00 0.00 0.00 0.00 0.01 0.01 0.03 0.06 0.13 0.15 0.09 0.08 0.11 0.06 0.05 0.05 0.05 0.05 0.06 0.03 0.05 0.02 0.00 0.01 0.01 0.01 0.02 0.02 0.04 0.09 0.12 0.13
0.00 0.00 0.00 0.00 0.00 0.00 0.00 0.00 0.00 0.00 0.00 0.00 0.00 0.00 0.00 0.00 0.00 0.00 0.00 0.00 0.00 0.02 0.04 0.08 0.12 0.19 0.20 0.10 0.11 0.16 0.10 0.08 0.06 0.03 0.05 0.06 0.04 0.04 0.01 0.01 0.03 0.02 0.01 0.01 0.01 0.03 0.06 0.10 0.14
0.00 0.00 0.00 0.00 0.00 0.00 0.00 0.00 0.00 0.00 0.00 0.00 0.00 0.00 0.00 0.00 0.00 0.00 0.00 0.00 0.01 0.02 0.04 0.09 0.16 0.17 0.16 0.13 0.15 0.21 0.14 0.12 0.06 0.03 0.05 0.05 0.04 0.04 0.01 0.01 0.02 0.02 0.02 0.01 0.01 0.01 0.02 0.04 0.07
0.01 0.00 0.00 0.00 0.00 0.00 0.00 0.00 0.00 0.00 0.00 0.00 0.00 0.00 0.00 0.00 0.00 0.00 0.01 0.01 0.02 0.02 0.03 0.09 0.12 0.12 0.14 0.16 0.20 0.23 0.23 0.16 0.05 0.03 0.05 0.04 0.03 0.03 0.02 0.02 0.02 0.02 0.01 0.01 0.01 0.01 0.00 0.00 0.01
0.00 0.00 0.00 0.00 0.00 0.00 0.00 0.00 0.00 0.00 0.00 0.00 0.00 0.00 0.00 0.00 0.00 0.01 0.04 0.08 0.06 0.04 0.03 0.08 0.08 0.08 0.12 0.18 0.18 0.25 0.33 0.18 0.05 0.03 0.05 0.05 0.04 0.03 0.02 0.01 0.01 0.01 0.01 0.00 0.00 0.01 0.00 0.00 0.00
0.01 0.00 0.00 0.00 0.00 0.00 0.00 0.00 0.00 0.00 0.00 0.00 0.00 0.00 0.00 0.00 0.00 0.02 0.07 0.07 0.04 0.03 0.01 0.02 0.03 0.05 0.09 0.12 0.17 0.24 0.45 0.33 0.07 0.05 0.05 0.06 0.04 0.03 0.02 0.00 0.00 0.01 0.01 0.00 0.00 0.00 0.00 0.00 0.01
0.01 0.01 0.00 0.00 0.00 0.00 0.01 0.01 0.00 0.00 0.00 0.00 0.00 0.00 0.00 0.00 0.00 0.01 0.02 0.01 0.01 0.00 0.00 0.00 0.01 0.01 0.03 0.08 0.16 0.26 0.38 0.37 0.14 0.07 0.05 0.05 0.03 0.05 0.03 0.00 0.00 0.01 0.00 0.00 0.00 0.00 0.00 0.00 0.01
0.01 0.00 0.00 0.01 0.02 0.01 0.02 0.01 0.00 0.00 0.00 0.00 0.00 0.00 0.00 0.00 0.00 0.00 0.00 0.00 0.00 0.00 0.00 0.00 0.00 0.01 0.01 0.01 0.08 0.14 0.15 0.19 0.09 0.06 0.04 0.02 0.03 0.04 0.01 0.00 0.00 0.01 0.00 0.00 0.00 0.00 0.00 0.00 0.00
0.02 0.01 0.01 0.03 0.04 0.01 0.01 0.00 0.00 0.00 0.00 0.00 0.00 0.00 0.00 0.00 0.00 0.00 0.00 0.00 0.00 0.00 0.00 0.00 0.00 0.00 0.00 0.02 0.05 0.08 0.09 0.11 0.09 0.05 0.03 0.02 0.02 0.01 0.00 0.00 0.01 0.01 0.00 0.00 0.00 0.00 0.00 0.00 0.00
0.04 0.02 0.00 0.01 0.03 0.02 0.01 0.00 0.00 0.00 0.00 0.00 0.00 0.00 0.00 0.00 0.00 0.00 0.00 0.00 0.00 0.00 0.00 0.00 0.00 0.00 0.00 0.02 0.06 0.10 0.16 0.14 0.08 0.03 0.01 0.00 0.01 0.00 0.00 0.00 0.00 0.01 0.01 0.00 0.00 0.00 0.00 0.00 0.00
0.04 0.05 0.03 0.02 0.04 0.05 0.02 0.02 0.02 0.01 0.00 0.00 0.00 0.00 0.00 0.00 0.00 0.00 0.00 0.00 0.00 0.00 0.00 0.00 0.00 0.00 0.00 0.01 0.02 0.07 0.22 0.23 0.17 0.07 0.01 0.00 0.01 0.00 0.00 0.00 0.00 0.00 0.01 0.00 0.00 0.00 0.00 0.00 0.01
0.04 0.06 0.05 0.06 0.06 0.04 0.03 0.02 0.03 0.02 0.01 0.01 0.00 0.00 0.00 0.00 0.00 0.00 0.00 0.00 0.00 0.00 0.00 0.00 0.00 0.00 0.00 0.00 0.01 0.04 0.07 0.11 0.16 0.09 0.02 0.01 0.01 0.00 0.00 0.00 0.00 0.00 0.00 0.01 0.00 0.00 0.00 0.01 0.01
0.01 0.03 0.04 0.03 0.02 0.01 0.01 0.01 0.01 0.01 0.02 0.03 0.01 0.01 0.02 0.01 0.00 0.00 0.00 0.00 0.00 0.00 0.00 0.00 0.00 0.00 0.00 0.00 0.00 0.02 0.04 0.07 0.10 0.08 0.02 0.01 0.02 0.02 0.00 0.00 0.00 0.02 0.02 0.02 0.01 0.00 0.00 0.00 0.01
0.00 0.00 0.00 0.00 0.00 0.00 0.00 0.00 0.01 0.01 0.01 0.03 0.01 0.01 0.03 0.03 0.03 0.02 0.01 0.01 0.00 0.00 0.00 0.00 0.00 0.00 0.00 0.00 0.00 0.00 0.01 0.04 0.09 0.11 0.06 0.03 0.06 0.06 0.03 0.03 0.05 0.05 0.03 0.03 0.02 0.00 0.00 0.00 0.00
0.00 0.00 0.00 0.00 0.00 0.00 0.00 0.00 0.00 0.00 0.01 0.01 0.02 0.01 0.02 0.04 0.07 0.08 0.05 0.04 0.03 0.01 0.00 0.00 0.00 0.00 0.00 0.00 0.00 0.00 0.01 0.04 0.08 0.10 0.09 0.15 0.23 0.19 0.12 0.13 0.13 0.11 0.08 0.05 0.03 0.02 0.01 0.00 0.00
0.01 0.00 0.00 0.00 0.00 0.00 0.00 0.00 0.00 0.00 0.00 0.00 0.01 0.01 0.00 0.01 0.03 0.06 0.08 0.11 0.11 0.06 0.02 0.00 0.00 0.01 0.01 0.01 0.02 0.01 0.01 0.03 0.05 0.08 0.19 0.47 0.55 0.42 0.32 0.30 0.22 0.15 0.16 0.15 0.13 0.07 0.03 0.01 0.01
0.02 0.01 0.01 0.00 0.00 0.00 0.00 0.00 0.00 0.00 0.00 0.00 0.00 0.01 0.00 0.00 0.00 0.01 0.02 0.05 0.09 0.08 0.03 0.00 0.00 0.01 0.02 0.03 0.03 0.02 0.03 0.03 0.05 0.08 0.14 0.31 0.45 0.41 0.39 0.41 0.35 0.24 0.20 0.23 0.24 0.16 0.10 0.05 0.02
0.02 0.01 0.00 0.00 0.00 0.00 0.00 0.00 0.00 0.00 0.00 0.00 0.00 0.00 0.00 0.00 0.00 0.00 0.00 0.01 0.01 0.02 0.02 0.02 0.01 0.04 0.09 0.12 0.13 0.15 0.13 0.09 0.07 0.08 0.13 0.21 0.27 0.27 0.26 0.38 0.40 0.30 0.24 0.25 0.30 0.24 0.19 0.13 0.07
0.00 0.00 0.00 0.00 0.00 0.00 0.00 0.00 0.00 0.00 0.00 0.00 0.00 0.00 0.00 0.00 0.00 0.00 0.00 0.00 0.00 0.01 0.03 0.07 0.13 0.21 0.32 0.42 0.44 0.36 0.27 0.22 0.17 0.14 0.17 0.24 0.29 0.24 0.22 0.29 0.31 0.23 0.20 0.25 0.30 0.28 0.33 0.34 0.23
0.00 0.00 0.00 0.01 0.01 0.00 0.00 0.00 0.00 0.00 0.00 0.00 0.00 0.00 0.00 0.00 0.00 0.01 0.02 0.02 0.04 0.08 0.14 0.24 0.35 0.48 0.58 0.66 0.59 0.44 0.37 0.30 0.26 0.24 0.25 0.23 0.23 0.20 0.14 0.13 0.14 0.12 0.11 0.13 0.16 0.23 0.38 0.52 0.48
0.00 0.00 0.00 0.00 0.01 0.01 0.00 0.00 0.00 0.00 0.00 0.00 0.00 0.00 0.00 0.00 0.02 0.06 0.09 0.10 0.13 0.23 0.35 0.45 0.64 0.76 0.83 0.77 0.62 0.53 0.40 0.32 0.26 0.25 0.28 0.29 0.23 0.18 0.14 0.11 0.10 0.10 0.09 0.07 0.08 0.14 0.26 0.43 0.56
0.00 0.00 0.00 0.00 0.01 0.01 0.00 0.01 0.01 0.00 0.00 0.00 0.00 0.00 0.00 0.00 0.03 0.12 0.20 0.22 0.26 0.47 0.69 0.80 0.86 0.90 0.83 0.71 0.59 0.52 0.48 0.41 0.32 0.30 0.32 0.26 0.16 0.12 0.12 0.11 0.11 0.10 0.08 0.04 0.05 0.11 0.14 0.21 0.31
0.00 0.00 0.01 0.01 0.01 0.01 0.01 0.02 0.02 0.00 0.00 0.00 0.00 0.00 0.01 0.02 0.03 0.09 0.21 0.31 0.49 0.74 0.97 1.05 0.99 0.87 0.70 0.62 0.57 0.54 0.51 0.46 0.37 0.29 0.24 0.18 0.12 0.11 0.11 0.09 0.07 0.05 0.03 0.03 0.05 0.10 0.08 0.09 0.14
0.00 0.00 0.03 0.03 0.02 0.03 0.05 0.06 0.03 0.01 0.00 0.00 0.00 0.01 0.02 0.07 0.09 0.10 0.17 0.32 0.56 0.84 1.09 1.30 1.20 0.97 0.75 0.64 0.60 0.57 0.53 0.45 0.34 0.26 0.21 0.19 0.16 0.15 0.11 0.08 0.07 0.05 0.04 0.03 0.07 0.06 0.03 0.04 0.09
0.00 0.01 0.03 0.08 0.05 0.05 0.06 0.08 0.07 0.03 0.01 0.01 0.01 0.02 0.04 0.06 0.12 0.19 0.30 0.36 0.52 0.76 1.08 1.25 1.22 1.05 0.88 0.78 0.73 0.70 0.58 0.45 0.32 0.22 0.18 0.16 0.12 0.08 0.06 0.07 0.08 0.07 0.04 0.03 0.05 0.04 0.04 0.03 0.03
0.01 0.02 0.05 0.11 0.11 0.08 0.08 0.09 0.06 0.02 0.01 0.01 0.01 0.01 0.02 0.03 0.04 0.14 0.36 0.53 0.73 0.68 0.79 0.92 0.90 0.86 0.84 0.83 0.87 0.82 0.62 0.46 0.35 0.26 0.20 0.13 0.09 0.05 0.04 0.04 0.04 0.03 0.02 0.01 0.02 0.03 0.07 0.06 0.05
0.03 0.04 0.06 0.10 0.14 0.14 0.16 0.15 0.08 0.04 0.03 0.02 0.02 0.02 0.01 0.02 0.03 0.06 0.18 0.30 0.47 0.57 0.58 0.58 0.61 0.66 0.71 0.69 0.69 0.60 0.42 0.31 0.26 0.22 0.17 0.10 0.06 0.04 0.03 0.02 0.01 0.02 0.03 0.02 0.02 0.03 0.03 0.04 0.04
0.10 0.11 0.10 0.16 0.21 0.24 0.32 0.31 0.15 0.11 0.10 0.09 0.08 0.07 0.04 0.04 0.04 0.04 0.08 0.16 0.23 0.32 0.38 0.41 0.44 0.51 0.54 0.50 0.47 0.37 0.26 0.22 0.23 0.21 0.14 0.08 0.07 0.07 0.04 0.03 0.02 0.03 0.05 0.05 0.05 0.05 0.04 0.03 0.03

GEFSSGP_prec_meanprecacc_018.txt.gz
Total_Precipitation_Accumulation
0.00 0.00 0.00 0.01 0.08 0.04 0.00 0.00 0.00 0.00 0.00 0.00 0.00 0.00 0.00 0.00 0.01 0.13 0.03 0.00 0.00 0.00 0.00 0.01 0.02 0.02 0.02 0.02 0.02 0.03 0.04 0.03 0.02 0.05 0.03 0.04 0.02 0.01 0.01 0.01 0.01 0.01 0.01 0.02 0.07 0.12 0.13 0.14 0.21
0.00 0.00 0.00 0.01 0.04 0.01 0.00 0.00 0.00 0.00 0.00 0.00 0.00 0.00 0.00 0.00 0.00 0.00 0.00 0.00 0.00 0.00 0.00 0.01 0.02 0.05 0.07 0.04 0.03 0.05 0.04 0.02 0.03 0.05 0.04 0.05 0.02 0.01 0.01 0.01 0.01 0.02 0.02 0.02 0.05 0.11 0.14 0.15 0.17
0.00 0.01 0.01 0.01 0.00 0.00 0.00 0.00 0.00 0.00 0.00 0.00 0.00 0.00 0.00 0.00 0.00 0.00 0.00 0.00 0.00 0.01 0.01 0.04 0.06 0.13 0.16 0.10 0.09 0.12 0.07 0.06 0.06 0.05 0.05 0.06 0.04 0.05 0.03 0.01 0.02 0.02 0.03 0.03 0.03 0.06 0.11 0.15 0.17
0.00 0.00 0.00 0.00 0.00 0.00 0.00 0.00 0.00 0.00 0.00 0.00 0.00 0.00 0.00 0.00 0.00 0.00 0.00 0.00 0.00 0.02 0.04 0.08 0.12 0.20 0.22 0.12 0.13 0.20 0.13 0.10 0.07 0.04 0.05 0.06 0.04 0.05 0.01 0.01 0.04 0.03 0.03 0.02 0.02 0.04 0.08 0.13 0.17
0.00 0.00 0.00 0.00 0.00 0.00 0.00 0.00 0.00 0.00 0.00 0.00 0.00 0.00 0.00 0.00 0.00 0.00 0.00 0.00 0.01 0.02 0.04 0.09 0.17 0.18 0.19 0.16 0.20 0.28 0.22 0.16 0.08 0.04 0.06 0.05 0.05 0.04 0.02 0.03 0.03 0.03 0.03 0.01 0.02 0.02 0.04 0.06 0.10
0.01 0.00 0.01 0.01 0.00 0.00 0.00 0.00 0.00 0.00 0.00 0.00 0.00 0.00 0.00 0.00 0.00 0.00 0.01 0.01 0.02 0.02 0.03 0.09 0.12 0.13 0.16 0.20 0.25 0.32 0.32 0.21 0.08 0.04 0.06 0.05 0.04 0.03 0.03 0.04 0.03 0.03 0.01 0.01 0.01 0.01 0.01 0.01 0.02
0.00 0.00 0.01 0.00 0.00 0.00 0.00 0.00 0.00 0.00 0.00 0.00 0.00 0.00 0.00 0.00 0.00 0.01 0.04 0.08 0.06 0.04 0.03 0.08 0.09 0.08 0.13 0.21 0.21 0.32 0.42 0.26 0.10 0.05 0.06 0.06 0.04 0.03 0.03 0.02 0.02 0.01 0.01 0.00 0.00 0.01 0.00 0.00 0.01
0.01 0.00 0.00 0.00 0.00 0.01 0.00 0.00 0.00 0.00 0.00 0.00 0.00 0.00 0.00 0.00 0.00 0.02 0.07 0.07 0.04 0.03 0.01 0.02 0.03 0.06 0.11 0.14 0.19 0.28 0.54 0.44 0.12 0.06 0.06 0.06 0.04 0.03 0.02 0.00 0.00 0.01 0.01 0.00 0.00 0.00 0.00 0.00 0.01
0.01 0.01 0.01 0.00 0.00 0.01 0.01 0.01 0.01 0.00 0.00 0.00 0.00 0.00 0.00 0.00 0.00 0.01 0.02 0.01 0.01 0.00 0.00 0.00 0.01 0.02 0.06 0.11 0.19 0.28 0.43 0.45 0.19 0.09 0.06 0.05 0.05 0.07 0.04 0.00 0.00 0.01 0.00 0.00 0.00 0.00 0.00 0.00 0.01
0.01 0.01 0.02 0.02 0.02 0.01 0.02 0.02 0.01 0.00 0.00 0.00 0.00 0.00 0.00 0.00 0.00 0.00 0.00 0.00 0.00 0.00 0.00 0.00 0.01 0.01 0.01 0.04 0.15 0.18 0.20 0.24 0.14 0.13 0.06 0.06 0.16 0.14 0.03 0.00 0.00 0.01 0.00 0.00 0.00 0.00 0.00 0.00 0.00
0.02 0.01 0.03 0.04 0.04 0.01 0.01 0.00 0.00 0.01 0.01 0.01 0.00 0.00 0.00 0.00 0.00 0.00 0.00 0.00 0.00 0.00 0.00 0.00 0.00 0.00 0.01 0.07 0.13 0.15 0.22 0.27 0.28 0.23 0.09 0.09 0.14 0.06 0.00 0.00 0.01 0.01 0.00 0.00 0.00 0.00 0.00 0.00 0.00
0.04 0.02 0.01 0.01 0.03 0.02 0.01 0.01 0.00 0.01 0.01 0.01 0.00 0.00 0.00 0.00 0.00 0.00 0.00 0.00 0.00 0.00 0.00 0.00 0.00 0.00 0.00 0.03 0.11 0.16 0.25 0.32 0.29 0.16 0.04 0.03 0.05 0.02 0.00 0.00 0.01 0.01 0.01 0.00 0.00 0.00 0.00 0.00 0.00
0.04 0.06 0.03 0.02 0.04 0.05 0.02 0.02 0.02 0.02 0.01 0.00 0.00 0.00 0.00 0.01 0.01 0.01 0.00 0.00 0.00 0.00 0.00 0.00 0.00 0.00 0.00 0.02 0.05 0.10 0.26 0.32 0.31 0.22 0.05 0.03 0.02 0.01 0.00 0.00 0.00 0.00 0.01 0.00 0.00 0.00 0.00 0.00 0.01
0.04 0.06 0.05 0.06 0.06 0.04 0.03 0.02 0.03 0.02 0.02 0.01 0.00 0.00 0.01 0.02 0.03 0.03 0.01 0.00 0.00 0.00 0.00 0.00 0.00 0.00 0.00 0.00 0.01 0.06 0.10 0.14 0.22 0.16 0.03 0.03 0.02 0.00 0.00 0.00 0.00 0.00 0.00 0.01 0.00 0.00 0.00 0.01 0.01
0.01 0.03 0.04 0.03 0.02 0.01 0.01 0.01 0.03 0.02 0.02 0.03 0.01 0.01 0.03 0.04 0.03 0.03 0.04 0.02 0.01 0.01 0.00 0.00 0.00 0.00 0.00 0.00 0.01 0.03 0.05 0.09 0.11 0.10 0.03 0.02 0.02 0.02 0.00 0.00 0.01 0.02 0.02 0.02 0.01 0.00 0.00 0.00 0.01
0.00 0.00 0.00 0.00 0.01 0.01 0.00 0.02 0.02 0.02 0.01 0.03 0.01 0.02 0.03 0.04 0.06 0.06 0.08 0.08 0.05 0.04 0.02 0.01 0.00 0.00 0.00 0.00 0.00 0.00 0.01 0.06 0.12 0.15 0.07 0.04 0.06 0.06 0.03 0.03 0.05 0.05 0.03 0.03 0.02 0.00 0.00 0.00 0.00
0.00 0.00 0.00 0.01 0.02 0.01 0.01 0.01 0.01 0.01 0.01 0.01 0.02 0.01 0.02 0.04 0.08 0.10 0.11 0.12 0.11 0.10 0.07 0.04 0.02 0.01 0.00 0.00 0.00 0.01 0.02 0.06 0.10 0.12 0.09 0.15 0.24 0.20 0.13 0.13 0.13 0.11 0.08 0.05 0.03 0.02 0.01 0.00 0.00
0.01 0.01 0.01 0.02 0.04 0.03 0.02 0.01 0.00 0.00 0.00 0.00 0.01 0.01 0.00 0.01 0.03 0.07 0.10 0.16 0.17 0.15 0.11 0.07 0.05 0.04 0.02 0.02 0.03 0.03 0.03 0.04 0.07 0.10 0.21 0.48 0.56 0.42 0.34 0.31 0.22 0.15 0.16 0.16 0.13 0.08 0.05 0.03 0.01
0.02 0.02 0.01 0.01 0.01 0.01 0.01 0.00 0.00 0.00 0.00 0.00 0.00 0.01 0.00 0.00 0.00 0.01 0.02 0.06 0.11 0.10 0.06 0.04 0.05 0.06 0.05 0.04 0.04 0.06 0.07 0.07 0.08 0.12 0.16 0.33 0.46 0.42 0.42 0.43 0.37 0.27 0.22 0.25 0.26 0.25 0.19 0.11 0.04
0.02 0.01 0.01 0.01 0.01 0.00 0.00 0.00 0.00 0.00 0.00 0.00 0.00 0.00 0.00 0.00 0.00 0.00 0.00 0.01 0.01 0.02 0.03 0.03 0.03 0.07 0.13 0.15 0.18 0.22 0.21 0.16 0.14 0.14 0.18 0.26 0.29 0.29 0.29 0.42 0.46 0.36 0.33 0.36 0.42 0.41 0.35 0.24 0.11
0.00 0.00 0.00 0.00 0.00 0.00 0.00 0.00 0.00 0.00 0.00 0.00 0.00 0.00 0.00 0.00 0.00 0.00 0.00 0.01 0.01 0.01 0.04 0.08 0.14 0.23 0.35 0.49 0.66 0.74 0.72 0.58 0.42 0.30 0.30 0.34 0.35 0.29 0.27 0.38 0.45 0.36 0.37 0.43 0.46 0.41 0.46 0.44 0.28
0.00 0.00 0.00 0.01 0.01 0.00 0.00 0.00 0.00 0.00 0.00 0.00 0.00 0.00 0.00 0.00 0.00 0.01 0.02 0.03 0.05 0.09 0.15 0.25 0.36 0.50 0.61 0.77 0.91 1.00 1.01 0.86 0.69 0.57 0.48 0.39 0.33 0.28 0.23 0.24 0.26 0.25 0.28 0.26 0.22 0.28 0.48 0.64 0.57
0.00 0.00 0.00 0.00 0.01 0.01 0.00 0.01 0.01 0.03 0.04 0.06 0.04 0.02 0.00 0.00 0.02 0.06 0.09 0.10 0.14 0.24 0.36 0.46 0.67 0.80 0.88 0.90 0.93 1.05 1.04 0.95 0.85 0.73 0.67 0.56 0.41 0.32 0.27 0.24 0.24 0.24 0.25 0.19 0.19 0.29 0.43 0.56 0.69
0.00 0.00 0.00 0.00 0.01 0.01 0.00 0.03 0.09 0.13 0.12 0.13 0.09 0.04 0.01 0.00 0.03 0.12 0.20 0.22 0.27 0.48 0.70 0.83 0.92 0.97 0.92 0.86 0.85 0.92 1.00 1.00 0.96 0.91 0.81 0.60 0.39 0.30 0.31 0.33 0.31 0.24 0.20 0.15 0.18 0.28 0.30 0.34 0.43
0.00 0.00 0.01 0.01 0.02 0.02 0.03 0.09 0.19 0.16 0.11 0.10 0.08 0.04 0.02 0.03 0.03 0.09 0.21 0.31 0.50 0.75 0.99 1.10 1.08 0.96 0.82 0.77 0.80 0.85 0.92 0.97 0.93 0.82 0.68 0.51 0.36 0.30 0.32 0.32 0.28 0.22 0.17 0.14 0.16 0.21 0.16 0.15 0.22
0.00 0.00 0.03 0.03 0.03 0.05 0.10 0.22 0.31 0.21 0.12 0.07 0.05 0.03 0.03 0.07 0.10 0.11 0.18 0.33 0.58 0.87 1.13 1.36 1.31 1.10 0.89 0.82 0.84 0.83 0.84 0.82 0.73 0.63 0.54 0.46 0.38 0.33 0.29 0.28 0.25 0.22 0.18 0.13 0.14 0.12 0.07 0.07 0.12
0.00 0.01 0.03 0.08 0.05 0.05 0.09 0.22 0.24 0.16 0.10 0.06 0.04 0.04 0.05 0.08 0.16 0.23 0.34 0.39 0.57 0.81 1.14 1.34 1.36 1.24 1.09 1.00 0.96 0.94 0.80 0.68 0.57 0.47 0.41 0.37 0.31 0.24 0.23 0.25 0.25 0.22 0.17 0.11 0.11 0.09 0.06 0.04 0.05
0.01 0.02 0.05 0.13 0.13 0.11 0.13 0.20 0.15 0.07 0.05 0.03 0.03 0.04 0.06 0.10 0.14 0.24 0.45 0.60 0.81 0.78 0.92 1.06 1.07 1.06 1.06 1.07 1.12 1.06 0.84 0.67 0.57 0.50 0.45 0.36 0.28 0.23 0.22 0.20 0.17 0.14 0.10 0.06 0.05 0.06 0.09 0.07 0.06
0.03 0.05 0.06 0.12 0.17 0.19 0.25 0.27 0.16 0.12 0.10 0.10 0.09 0.10 0.13 0.18 0.20 0.27 0.38 0.45 0.63 0.75 0.79 0.81 0.84 0.89 0.92 0.89 0.90 0.82 0.64 0.53 0.48 0.46 0.42 0.30 0.23 0.19 0.18 0.13 0.10 0.13 0.11 0.07 0.08 0.07 0.06 0.06 0.07
0.10 0.12 0.12 0.20 0.26 0.30 0.43 0.45 0.29 0.27 0.29 0.31 0.33 0.32 0.35 0.34 0.33 0.36 0.41 0.50 0.55 0.60 0.64 0.69 0.68 0.70 0.72 0.66 0.61 0.52 0.41 0.38 0.43 0.43 0.34 0.23 0.19 0.17 0.16 0.13 0.08 0.09 0.13 0.12 0.12 0.12 0.08 0.07 0.06

GEFSSGP_prec_meanprecacc_024.txt.gz
Total_Precipitation_Accumulation
0.00 0.02 0.01 0.02 0.12 0.06 0.00 0.00 0.00 0.00 0.00 0.00 0.00 0.00 0.00 0.00 0.02 0.14 0.04 0.00 0.00 0.00 0.00 0.02 0.02 0.02 0.02 0.02 0.02 0.03 0.04 0.03 0.02 0.05 0.04 0.04 0.02 0.01 0.01 0.02 0.02 0.01 0.02 0.03 0.08 0.14 0.15 0.16 0.23
0.00 0.01 0.01 0.04 0.07 0.01 0.00 0.00 0.00 0.00 0.00 0.00 0.00 0.00 0.00 0.00 0.00 0.00 0.00 0.00 0.00 0.00 0.00 0.01 0.02 0.05 0.07 0.04 0.03 0.05 0.05 0.03 0.03 0.05 0.05 0.05 0.02 0.01 0.01 0.01 0.02 0.03 0.03 0.03 0.05 0.12 0.16 0.17 0.19
0.00 0.01 0.02 0.06 0.02 0.00 0.00 0.00 0.00 0.00 0.00 0.00 0.00 0.00 0.00 0.00 0.00 0.00 0.00 0.01 0.00 0.01 0.01 0.04 0.06 0.13 0.16 0.10 0.09 0.12 0.08 0.06 0.06 0.05 0.05 0.06 0.04 0.05 0.03 0.01 0.02 0.03 0.04 0.04 0.04 0.07 0.12 0.17 0.18
0.00 0.00 0.03 0.02 0.00 0.00 0.00 0.00 0.00 0.00 0.00 0.00 0.00 0.00 0.00 0.00 0.00 0.00 0.00 0.01 0.00 0.02 0.04 0.08 0.12 0.20 0.22 0.12 0.13 0.20 0.13 0.11 0.07 0.04 0.05 0.06 0.04 0.05 0.01 0.01 0.04 0.03 0.03 0.03 0.03 0.05 0.09 0.15 0.19
0.00 0.01 0.01 0.01 0.00 0.00 0.00 0.00 0.00 0.00 0.00 0.00 0.00 0.00 0.00 0.00 0.00 0.00 0.00 0.00 0.01 0.02 0.04 0.09 0.17 0.18 0.19 0.16 0.20 0.29 0.23 0.17 0.08 0.04 0.06 0.06 0.05 0.04 0.02 0.03 0.03 0.03 0.03 0.02 0.02 0.02 0.04 0.08 0.12
0.01 0.03 0.05 0.02 0.00 0.00 0.01 0.00 0.00 0.00 0.00 0.00 0.00 0.00 0.00 0.00 0.00 0.00 0.01 0.02 0.02 0.02 0.03 0.09 0.12 0.13 0.16 0.20 0.25 0.33 0.33 0.22 0.09 0.04 0.06 0.05 0.04 0.03 0.03 0.04 0.03 0.03 0.01 0.01 0.01 0.01 0.01 0.01 0.04
0.01 0.04 0.08 0.03 0.01 0.00 0.00 0.00 0.00 0.00 0.00 0.00 0.00 0.00 0.00 0.00 0.00 0.01 0.04 0.08 0.06 0.04 0.03 0.08 0.09 0.08 0.13 0.21 0.22 0.33 0.44 0.27 0.11 0.05 0.06 0.07 0.05 0.03 0.03 0.02 0.02 0.01 0.01 0.00 0.00 0.01 0.00 0.00 0.01
0.01 0.02 0.03 0.02 0.01 0.02 0.00 0.00 0.00 0.00 0.00 0.00 0.00 0.00 0.00 0.00 0.00 0.02 0.07 0.07 0.05 0.03 0.02 0.02 0.03 0.06 0.12 0.14 0.21 0.29 0.56 0.47 0.15 0.08 0.06 0.07 0.04 0.03 0.03 0.01 0.00 0.01 0.01 0.00 0.00 0.00 0.00 0.00 0.01
0.01 0.03 0.04 0.05 0.03 0.04 0.02 0.01 0.01 0.00 0.00 0.00 0.00 0.00 0.00 0.00 0.00 0.01 0.02 0.01 0.01 0.00 0.01 0.01 0.01 0.02 0.06 0.11 0.20 0.31 0.45 0.48 0.22 0.10 0.07 0.05 0.05 0.07 0.04 0.00 0.00 0.01 0.00 0.00 0.00 0.00 0.00 0.00 0.01
0.02 0.03 0.05 0.07 0.08 0.06 0.03 0.02 0.01 0.01 0.01 0.01 0.02 0.01 0.00 0.00 0.00 0.00 0.00 0.00 0.00 0.00 0.00 0.00 0.01 0.02 0.02 0.05 0.16 0.19 0.21 0.25 0.15 0.13 0.06 0.06 0.16 0.14 0.04 0.01 0.00 0.01 0.00 0.00 0.00 0.00 0.00 0.00 0.00
0.03 0.02 0.07 0.15 0.13 0.05 0.02 0.01 0.01 0.01 0.02 0.03 0.02 0.02 0.01 0.00 0.00 0.00 0.00 0.00 0.00 0.00 0.00 0.00 0.00 0.00 0.01 0.07 0.14 0.16 0.23 0.28 0.29 0.23 0.09 0.09 0.16 0.08 0.01 0.00 0.01 0.01 0.00 0.00 0.00 0.00 0.00 0.00 0.00
0.04 0.02 0.02 0.04 0.04 0.03 0.02 0.01 0.01 0.02 0.03 0.03 0.02 0.02 0.02 0.03 0.02 0.01 0.00 0.00 0.00 0.00 0.00 0.00 0.00 0.00 0.00 0.04 0.11 0.16 0.25 0.32 0.29 0.16 0.05 0.04 0.07 0.04 0.01 0.00 0.01 0.01 0.01 0.00 0.00 0.00 0.00 0.00 0.00
0.05 0.06 0.04 0.03 0.04 0.05 0.03 0.02 0.03 0.03 0.02 0.01 0.02 0.02 0.04 0.06 0.07 0.05 0.03 0.02 0.01 0.01 0.00 0.00 0.00 0.00 0.00 0.02 0.05 0.10 0.26 0.32 0.31 0.23 0.06 0.07 0.05 0.02 0.01 0.00 0.00 0.00 0.01 0.00 0.00 0.00 0.00 0.00 0.01
0.04 0.07 0.05 0.07 0.06 0.05 0.04 0.04 0.06 0.06 0.05 0.03 0.02 0.04 0.07 0.10 0.11 0.11 0.07 0.06 0.04 0.03 0.02 0.01 0.01 0.01 0.00 0.00 0.01 0.06 0.10 0.14 0.22 0.16 0.04 0.08 0.07 0.03 0.01 0.00 0.00 0.00 0.00 0.01 0.00 0.00 0.00 0.01 0.01
0.01 0.03 0.04 0.03 0.03 0.05 0.07 0.07 0.07 0.07 0.07 0.07 0.04 0.06 0.09 0.11 0.13 0.14 0.13 0.10 0.08 0.09 0.07 0.05 0.05 0.04 0.02 0.01 0.01 0.03 0.05 0.09 0.11 0.10 0.03 0.05 0.08 0.05 0.02 0.02 0.01 0.02 0.02 0.02 0.01 0.00 0.00 0.00 0.01
0.00 0.01 0.01 0.01 0.05 0.09 0.08 0.06 0.07 0.08 0.06 0.07 0.05 0.05 0.07 0.10 0.13 0.16 0.19 0.19 0.16 0.15 0.12 0.10 0.10 0.08 0.06 0.04 0.03 0.01 0.01 0.06 0.12 0.15 0.07 0.05 0.10 0.10 0.06 0.04 0.06 0.05 0.03 0.03 0.02 0.00 0.00 0.00 0.00
0.00 0.00 0.01 0.03 0.06 0.08 0.07 0.08 0.07 0.06 0.05 0.04 0.03 0.02 0.04 0.06 0.11 0.15 0.18 0.22 0.23 0.24 0.19 0.16 0.13 0.10 0.09 0.09 0.09 0.07 0.05 0.08 0.11 0.13 0.10 0.17 0.27 0.25 0.17 0.15 0.14 0.11 0.09 0.05 0.03 0.02 0.01 0.00 0.00
0.01 0.01 0.01 0.03 0.05 0.05 0.06 0.09 0.08 0.04 0.02 0.02 0.02 0.01 0.01 0.01 0.04 0.08 0.12 0.20 0.23 0.24 0.23 0.21 0.20 0.18 0.13 0.13 0.18 0.19 0.15 0.12 0.12 0.13 0.24 0.51 0.60 0.48 0.41 0.36 0.24 0.16 0.16 0.16 0.13 0.08 0.05 0.03 0.01
0.02 0.02 0.01 0.01 0.01 0.01 0.02 0.03 0.04 0.02 0.01 0.01 0.01 0.01 0.01 0.01 0.00 0.01 0.03 0.07 0.14 0.14 0.13 0.15 0.19 0.23 0.20 0.15 0.18 0.24 0.26 0.25 0.24 0.26 0.26 0.42 0.54 0.50 0.52 0.51 0.42 0.29 0.23 0.25 0.27 0.26 0.20 0.12 0.04
0.02 0.01 0.01 0.01 0.01 0.00 0.00 0.01 0.02 0.02 0.02 0.01 0.01 0.01 0.00 0.00 0.00 0.00 0.00 0.01 0.02 0.04 0.06 0.10 0.14 0.21 0.27 0.27 0.31 0.43 0.55 0.58 0.57 0.52 0.47 0.47 0.44 0.42 0.41 0.55 0.58 0.43 0.37 0.39 0.46 0.45 0.41 0.28 0.14
0.00 0.00 0.00 0.00 0.00 0.00 0.00 0.01 0.02 0.02 0.03 0.02 0.01 0.01 0.01 0.01 0.01 0.00 0.00 0.01 0.01 0.02 0.04 0.10 0.18 0.31 0.46 0.60 0.80 1.02 1.26 1.31 1.15 0.94 0.85 0.80 0.71 0.58 0.50 0.59 0.64 0.51 0.48 0.51 0.53 0.48 0.57 0.55 0.37
0.00 0.00 0.00 0.01 0.01 0.00 0.00 0.00 0.02 0.05 0.06 0.06 0.06 0.06 0.05 0.04 0.04 0.04 0.03 0.03 0.05 0.09 0.15 0.26 0.37 0.53 0.67 0.86 1.06 1.29 1.50 1.64 1.64 1.58 1.46 1.29 1.09 0.83 0.62 0.55 0.53 0.51 0.50 0.46 0.37 0.41 0.60 0.78 0.69
0.00 0.00 0.00 0.00 0.01 0.01 0.00 0.01 0.04 0.11 0.17 0.21 0.23 0.23 0.20 0.16 0.15 0.14 0.12 0.11 0.14 0.24 0.36 0.47 0.67 0.81 0.90 0.94 1.03 1.24 1.34 1.39 1.50 1.61 1.61 1.52 1.30 1.05 0.79 0.60 0.52 0.50 0.48 0.42 0.40 0.49 0.63 0.77 0.89
0.00 0.00 0.00 0.00 0.01 0.01 0.00 0.04 0.13 0.24 0.32 0.39 0.39 0.35 0.31 0.23 0.19 0.21 0.23 0.23 0.27 0.49 0.71 0.83 0.92 0.97 0.92 0.88 0.89 1.02 1.18 1.26 1.35 1.44 1.46 1.36 1.18 1.07 0.95 0.78 0.63 0.49 0.40 0.34 0.39 0.54 0.56 0.59 0.68
0.00 0.00 0.01 0.01 0.02 0.03 0.03 0.11 0.26 0.28 0.27 0.30 0.32 0.30 0.26 0.17 0.12 0.15 0.23 0.32 0.50 0.76 0.99 1.11 1.09 0.97 0.83 0.78 0.82 0.90 1.02 1.14 1.19 1.17 1.13 1.05 0.96 0.91 0.85 0.75 0.62 0.46 0.35 0.32 0.38 0.47 0.41 0.37 0.42
0.00 0.00 0.03 0.03 0.03 0.05 0.11 0.27 0.38 0.30 0.21 0.15 0.13 0.13 0.14 0.16 0.17 0.16 0.21 0.34 0.59 0.87 1.14 1.37 1.33 1.13 0.91 0.84 0.87 0.86 0.90 0.91 0.88 0.84 0.82 0.80 0.76 0.72 0.63 0.58 0.52 0.43 0.35 0.30 0.33 0.34 0.28 0.25 0.28
0.00 0.01 0.03 0.08 0.05 0.06 0.11 0.26 0.29 0.20 0.13 0.10 0.09 0.11 0.15 0.16 0.24 0.29 0.37 0.43 0.60 0.82 1.16 1.37 1.40 1.27 1.11 1.04 0.99 0.97 0.85 0.73 0.63 0.56 0.54 0.54 0.50 0.45 0.43 0.44 0.44 0.39 0.32 0.27 0.27 0.26 0.22 0.20 0.17
0.01 0.02 0.05 0.13 0.13 0.11 0.15 0.23 0.18 0.09 0.07 0.08 0.10 0.13 0.16 0.21 0.25 0.35 0.55 0.71 0.90 0.84 0.98 1.16 1.14 1.11 1.10 1.11 1.15 1.09 0.88 0.73 0.64 0.58 0.53 0.46 0.42 0.37 0.38 0.38 0.34 0.30 0.24 0.19 0.19 0.21 0.22 0.18 0.15
0.03 0.05 0.06 0.12 0.17 0.20 0.27 0.32 0.20 0.15 0.16 0.19 0.23 0.25 0.27 0.32 0.37 0.47 0.59 0.68 0.82 0.91 0.95 0.99 0.98 0.97 0.97 0.93 0.92 0.84 0.66 0.56 0.52 0.52 0.49 0.39 0.34 0.31 0.30 0.26 0.24 0.30 0.26 0.20 0.22 0.21 0.18 0.17 0.17
0.10 0.12 0.12 0.20 0.26 0.31 0.45 0.49 0.32 0.32 0.36 0.42 0.47 0.49 0.52 0.52 0.55 0.63 0.69 0.80 0.85 0.85 0.88 0.94 0.88 0.83 0.79 0.70 0.65 0.57 0.44 0.40 0.45 0.46 0.38 0.28 0.26 0.25 0.27 0.24 0.20 0.27 0.35 0.36 0.33 0.29 0.24 0.20 0.15

GEFSSGP_prec_meanprecacc_030.txt.gz
Total_Precipitation_Accumulation
0.00 0.02 0.02 0.03 0.12 0.06 0.00 0.00 0.00 0.00 0.00 0.00 0.00 0.00 0.00 0.00 0.02 0.14 0.04 0.00 0.00 0.00 0.00 0.03 0.03 0.03 0.03 0.02 0.02 0.03 0.04 0.03 0.03 0.06 0.04 0.04 0.02 0.01 0.01 0.02 0.02 0.02 0.03 0.05 0.11 0.17 0.18 0.18 0.25
0.00 0.01 0.02 0.05 0.07 0.01 0.00 0.00 0.00 0.00 0.00 0.00 0.00 0.00 0.00 0.00 0.00 0.00 0.00 0.00 0.00 0.00 0.00 0.01 0.03 0.05 0.08 0.05 0.04 0.06 0.05 0.03 0.04 0.06 0.05 0.05 0.02 0.01 0.01 0.01 0.02 0.03 0.03 0.04 0.07 0.15 0.18 0.19 0.21
0.00 0.01 0.02 0.06 0.02 0.00 0.00 0.00 0.00 0.00 0.00 0.00 0.00 0.00 0.00 0.00 0.00 0.00 0.01 0.01 0.00 0.01 0.01 0.04 0.07 0.14 0.16 0.10 0.09 0.12 0.08 0.07 0.06 0.05 0.05 0.06 0.04 0.05 0.03 0.01 0.02 0.03 0.04 0.04 0.04 0.08 0.15 0.19 0.20
0.00 0.00 0.03 0.02 0.00 0.00 0.00 0.00 0.00 0.00 0.00 0.00 0.00 0.00 0.00 0.00 0.00 0.00 0.01 0.01 0.00 0.02 0.04 0.08 0.13 0.20 0.22 0.12 0.14 0.20 0.14 0.11 0.07 0.04 0.05 0.06 0.04 0.05 0.01 0.01 0.04 0.03 0.03 0.03 0.03 0.05 0.10 0.16 0.20
0.00 0.01 0.02 0.01 0.00 0.00 0.00 0.00 0.00 0.00 0.00 0.00 0.00 0.00 0.00 0.00 0.00 0.00 0.00 0.00 0.01 0.02 0.04 0.09 0.17 0.19 0.19 0.17 0.21 0.29 0.23 0.17 0.09 0.04 0.06 0.06 0.05 0.04 0.02 0.03 0.03 0.03 0.03 0.02 0.02 0.03 0.05 0.09 0.14
0.01 0.03 0.05 0.02 0.00 0.00 0.01 0.00 0.00 0.00 0.00 0.00 0.00 0.00 0.00 0.00 0.00 0.00 0.01 0.02 0.02 0.02 0.03 0.09 0.13 0.13 0.16 0.20 0.26 0.33 0.33 0.22 0.09 0.04 0.06 0.05 0.04 0.03 0.03 0.04 0.04 0.03 0.01 0.01 0.01 0.01 0.01 0.02 0.05
0.01 0.04 0.08 0.04 0.01 0.01 0.01 0.01 0.00 0.00 0.00 0.00 0.00 0.00 0.00 0.00 0.00 0.01 0.04 0.08 0.06 0.04 0.03 0.08 0.09 0.08 0.13 0.21 0.22 0.33 0.45 0.28 0.12 0.05 0.06 0.07 0.05 0.03 0.03 0.02 0.02 0.01 0.01 0.00 0.00 0.01 0.00 0.01 0.01
0.01 0.02 0.04 0.04 0.02 0.03 0.02 0.01 0.01 0.01 0.00 0.00 0.00 0.00 0.00 0.00 0.00 0.02 0.07 0.08 0.05 0.03 0.02 0.02 0.03 0.06 0.12 0.15 0.21 0.30 0.57 0.48 0.16 0.08 0.07 0.07 0.05 0.04 0.03 0.01 0.00 0.01 0.01 0.00 0.00 0.00 0.00 0.00 0.01
0.01 0.03 0.06 0.07 0.05 0.05 0.03 0.02 0.03 0.02 0.01 0.00 0.00 0.00 0.00 0.00 0.01 0.02 0.03 0.03 0.02 0.01 0.01 0.01 0.02 0.02 0.06 0.12 0.20 0.31 0.47 0.50 0.24 0.11 0.07 0.06 0.05 0.08 0.04 0.01 0.00 0.01 0.00 0.00 0.00 0.00 0.00 0.00 0.01
0.02 0.03 0.06 0.08 0.08 0.07 0.05 0.04 0.03 0.03 0.02 0.02 0.02 0.01 0.00 0.00 0.02 0.02 0.02 0.02 0.02 0.01 0.01 0.01 0.01 0.02 0.02 0.05 0.16 0.19 0.21 0.26 0.16 0.13 0.06 0.06 0.16 0.14 0.04 0.01 0.00 0.01 0.00 0.00 0.00 0.00 0.00 0.00 0.00
0.03 0.02 0.08 0.16 0.13 0.05 0.03 0.03 0.03 0.03 0.03 0.04 0.03 0.02 0.02 0.02 0.03 0.05 0.07 0.07 0.07 0.07 0.05 0.03 0.02 0.02 0.02 0.08 0.14 0.17 0.23 0.28 0.30 0.23 0.09 0.09 0.16 0.08 0.01 0.00 0.01 0.01 0.00 0.00 0.00 0.00 0.00 0.00 0.00
0.05 0.03 0.03 0.05 0.05 0.03 0.03 0.02 0.03 0.03 0.04 0.04 0.04 0.04 0.05 0.06 0.07 0.08 0.10 0.13 0.15 0.15 0.15 0.13 0.06 0.03 0.03 0.05 0.12 0.17 0.25 0.32 0.29 0.16 0.05 0.04 0.07 0.04 0.01 0.00 0.01 0.01 0.01 0.00 0.00 0.00 0.00 0.00 0.00
0.05 0.07 0.05 0.05 0.05 0.07 0.05 0.05 0.05 0.06 0.04 0.03 0.05 0.09 0.13 0.16 0.17 0.15 0.12 0.13 0.14 0.18 0.21 0.23 0.19 0.11 0.09 0.08 0.10 0.11 0.27 0.32 0.31 0.23 0.06 0.07 0.05 0.02 0.01 0.00 0.00 0.00 0.01 0.00 0.00 0.00 0.00 0.00 0.01
0.05 0.08 0.07 0.08 0.08 0.08 0.08 0.08 0.10 0.09 0.09 0.07 0.08 0.15 0.21 0.26 0.28 0.26 0.21 0.18 0.16 0.18 0.22 0.27 0.30 0.26 0.23 0.20 0.17 0.16 0.15 0.17 0.23 0.16 0.04 0.08 0.08 0.03 0.01 0.02 0.01 0.00 0.00 0.01 0.00 0.00 0.00 0.01 0.01
0.02 0.04 0.05 0.03 0.04 0.07 0.10 0.11 0.12 0.11 0.12 0.12 0.10 0.14 0.20 0.26 0.28 0.30 0.29 0.25 0.23 0.26 0.27 0.32 0.39 0.42 0.38 0.33 0.33 0.27 0.23 0.22 0.16 0.12 0.04 0.05 0.08 0.06 0.05 0.06 0.04 0.03 0.03 0.02 0.01 0.00 0.00 0.00 0.01
0.00 0.01 0.01 0.01 0.06 0.10 0.10 0.09 0.10 0.12 0.10 0.10 0.08 0.10 0.14 0.19 0.23 0.27 0.31 0.32 0.30 0.31 0.30 0.33 0.36 0.38 0.41 0.40 0.40 0.39 0.33 0.30 0.27 0.23 0.13 0.08 0.11 0.14 0.10 0.10 0.11 0.10 0.05 0.03 0.02 0.00 0.00 0.00 0.00
0.00 0.00 0.01 0.03 0.06 0.08 0.08 0.09 0.08 0.08 0.07 0.05 0.05 0.04 0.07 0.10 0.15 0.20 0.23 0.29 0.32 0.34 0.30 0.29 0.30 0.29 0.30 0.34 0.42 0.47 0.46 0.42 0.40 0.35 0.24 0.26 0.33 0.31 0.23 0.23 0.24 0.24 0.17 0.09 0.05 0.02 0.01 0.00 0.00
0.01 0.01 0.01 0.03 0.05 0.05 0.06 0.09 0.09 0.05 0.03 0.02 0.03 0.02 0.02 0.03 0.05 0.09 0.14 0.22 0.26 0.29 0.30 0.29 0.31 0.29 0.25 0.29 0.40 0.46 0.45 0.43 0.46 0.46 0.49 0.72 0.76 0.60 0.52 0.51 0.42 0.34 0.28 0.22 0.16 0.09 0.05 0.03 0.01
0.02 0.02 0.01 0.01 0.01 0.01 0.02 0.03 0.04 0.02 0.01 0.01 0.01 0.01 0.01 0.01 0.01 0.01 0.03 0.07 0.14 0.15 0.14 0.18 0.24 0.30 0.27 0.23 0.29 0.38 0.44 0.51 0.56 0.65 0.67 0.82 0.85 0.75 0.73 0.72 0.65 0.50 0.39 0.37 0.35 0.30 0.22 0.13 0.05
0.02 0.01 0.01 0.01 0.01 0.01 0.01 0.01 0.03 0.02 0.02 0.01 0.01 0.01 0.01 0.01 0.01 0.01 0.01 0.01 0.02 0.04 0.06 0.10 0.15 0.23 0.30 0.32 0.36 0.49 0.65 0.75 0.80 0.88 0.89 0.93 0.87 0.80 0.75 0.85 0.87 0.71 0.62 0.59 0.61 0.54 0.45 0.30 0.16
0.00 0.00 0.00 0.00 0.00 0.00 0.00 0.01 0.02 0.03 0.03 0.02 0.02 0.03 0.03 0.03 0.02 0.01 0.01 0.01 0.01 0.02 0.05 0.10 0.18 0.31 0.47 0.62 0.82 1.05 1.32 1.41 1.29 1.14 1.17 1.23 1.22 1.11 0.99 1.01 1.03 0.87 0.78 0.77 0.75 0.66 0.69 0.64 0.45
0.00 0.00 0.00 0.01 0.01 0.00 0.00 0.00 0.02 0.05 0.06 0.07 0.08 0.09 0.09 0.07 0.06 0.05 0.04 0.03 0.05 0.09 0.15 0.26 0.37 0.53 0.67 0.86 1.07 1.31 1.53 1.70 1.70 1.71 1.73 1.67 1.56 1.39 1.18 1.07 1.00 0.95 0.90 0.79 0.66 0.67 0.83 0.97 0.85
0.00 0.00 0.00 0.00 0.01 0.01 0.00 0.01 0.04 0.11 0.17 0.22 0.25 0.25 0.23 0.19 0.18 0.17 0.14 0.12 0.14 0.25 0.36 0.47 0.68 0.81 0.90 0.94 1.03 1.24 1.35 1.40 1.53 1.68 1.75 1.71 1.58 1.42 1.24 1.08 0.99 0.94 0.93 0.86 0.81 0.84 0.94 1.05 1.13
0.00 0.00 0.00 0.00 0.01 0.01 0.00 0.04 0.13 0.24 0.32 0.40 0.40 0.36 0.33 0.25 0.22 0.24 0.26 0.25 0.28 0.49 0.71 0.84 0.92 0.97 0.93 0.88 0.89 1.03 1.19 1.27 1.36 1.47 1.52 1.43 1.29 1.25 1.21 1.12 0.99 0.87 0.81 0.77 0.82 0.94 0.94 0.97 1.01
0.00 0.00 0.01 0.01 0.02 0.03 0.03 0.11 0.26 0.28 0.27 0.30 0.33 0.32 0.28 0.20 0.16 0.20 0.28 0.38 0.53 0.77 1.00 1.12 1.10 0.99 0.84 0.79 0.83 0.91 1.03 1.16 1.20 1.18 1.15 1.08 1.00 0.99 1.01 0.98 0.88 0.75 0.67 0.64 0.70 0.78 0.73 0.69 0.72
0.00 0.00 0.03 0.03 0.03 0.05 0.11 0.27 0.38 0.30 0.21 0.16 0.16 0.16 0.18 0.22 0.26 0.25 0.28 0.43 0.67 0.93 1.17 1.40 1.37 1.16 0.93 0.86 0.89 0.89 0.92 0.93 0.89 0.85 0.84 0.83 0.79 0.76 0.69 0.69 0.67 0.62 0.58 0.54 0.57 0.56 0.49 0.45 0.47
0.00 0.01 0.03 0.08 0.05 0.06 0.12 0.26 0.29 0.20 0.14 0.12 0.14 0.17 0.22 0.28 0.36 0.41 0.50 0.58 0.77 0.97 1.28 1.49 1.52 1.34 1.17 1.09 1.04 1.01 0.88 0.76 0.66 0.58 0.56 0.56 0.52 0.49 0.48 0.51 0.54 0.54 0.50 0.45 0.44 0.42 0.39 0.35 0.31
0.01 0.02 0.05 0.13 0.13 0.11 0.15 0.24 0.19 0.11 0.10 0.12 0.18 0.23 0.28 0.34 0.39 0.52 0.76 0.95 1.16 1.08 1.19 1.36 1.29 1.21 1.17 1.18 1.20 1.13 0.93 0.77 0.67 0.60 0.55 0.49 0.44 0.40 0.42 0.43 0.41 0.41 0.39 0.38 0.39 0.39 0.38 0.32 0.28
0.03 0.05 0.06 0.12 0.17 0.20 0.28 0.33 0.22 0.18 0.20 0.25 0.31 0.34 0.37 0.43 0.48 0.62 0.78 0.93 1.10 1.19 1.18 1.21 1.15 1.12 1.08 1.02 0.99 0.89 0.71 0.60 0.55 0.55 0.50 0.41 0.37 0.36 0.36 0.31 0.32 0.39 0.37 0.33 0.36 0.36 0.32 0.29 0.26
0.10 0.12 0.12 0.20 0.26 0.31 0.45 0.50 0.33 0.33 0.38 0.45 0.51 0.54 0.57 0.57 0.60 0.71 0.78 0.93 1.02 1.02 1.04 1.11 1.04 0.98 0.92 0.80 0.72 0.62 0.49 0.43 0.47 0.47 0.39 0.29 0.28 0.28 0.32 0.31 0.28 0.37 0.46 0.47 0.44 0.40 0.34 0.29 0.23

GEFSSGP_prec_meanprecacc_036.txt.gz
Total_Precipitation_Accumulation
0.00 0.02 0.02 0.03 0.12 0.06 0.00 0.00 0.00 0.00 0.00 0.00 0.00 0.00 0.00 0.00 0.02 0.15 0.04 0.00 0.00 0.00 0.00 0.03 0.04 0.04 0.04 0.03 0.03 0.04 0.06 0.05 0.04 0.07 0.05 0.06 0.04 0.03 0.04 0.04 0.04 0.05 0.06 0.08 0.15 0.23 0.25 0.25 0.33
0.00 0.01 0.02 0.05 0.07 0.01 0.00 0.00 0.00 0.00 0.00 0.00 0.00 0.00 0.00 0.00 0.00 0.01 0.00 0.00 0.00 0.00 0.00 0.01 0.03 0.06 0.08 0.06 0.05 0.07 0.07 0.06 0.05 0.07 0.06 0.07 0.04 0.04 0.04 0.03 0.03 0.04 0.05 0.06 0.10 0.19 0.25 0.27 0.29
0.00 0.01 0.02 0.06 0.02 0.00 0.00 0.00 0.00 0.00 0.00 0.00 0.00 0.00 0.00 0.00 0.00 0.00 0.01 0.01 0.00 0.01 0.01 0.04 0.07 0.14 0.17 0.11 0.10 0.13 0.10 0.09 0.08 0.07 0.07 0.08 0.06 0.07 0.04 0.02 0.03 0.04 0.06 0.07 0.08 0.14 0.22 0.26 0.27
0.00 0.00 0.03 0.02 0.00 0.00 0.00 0.00 0.00 0.00 0.00 0.00 0.00 0.00 0.00 0.00 0.00 0.00 0.01 0.01 0.00 0.02 0.04 0.09 0.13 0.20 0.22 0.13 0.14 0.21 0.15 0.13 0.08 0.05 0.06 0.07 0.05 0.06 0.02 0.02 0.04 0.04 0.04 0.05 0.07 0.11 0.17 0.22 0.26
0.00 0.01 0.02 0.01 0.00 0.00 0.00 0.00 0.00 0.00 0.00 0.00 0.00 0.00 0.00 0.00 0.00 0.00 0.00 0.00 0.01 0.02 0.04 0.09 0.17 0.19 0.20 0.17 0.21 0.30 0.24 0.18 0.10 0.05 0.06 0.06 0.05 0.05 0.03 0.04 0.03 0.03 0.03 0.03 0.04 0.06 0.10 0.13 0.18
0.01 0.03 0.05 0.03 0.01 0.00 0.01 0.00 0.00 0.00 0.00 0.00 0.00 0.00 0.00 0.00 0.00 0.01 0.01 0.02 0.02 0.02 0.03 0.09 0.13 0.13 0.17 0.20 0.26 0.34 0.34 0.23 0.10 0.05 0.06 0.05 0.05 0.04 0.04 0.05 0.04 0.03 0.01 0.01 0.02 0.04 0.05 0.05 0.08
0.01 0.04 0.09 0.05 0.02 0.01 0.01 0.01 0.01 0.00 0.00 0.00 0.00 0.00 0.00 0.00 0.01 0.02 0.05 0.08 0.07 0.04 0.03 0.08 0.09 0.09 0.13 0.22 0.23 0.35 0.47 0.30 0.13 0.06 0.07 0.07 0.05 0.04 0.04 0.03 0.02 0.01 0.01 0.00 0.01 0.02 0.03 0.03 0.03
0.01 0.02 0.04 0.04 0.03 0.03 0.02 0.01 0.02 0.02 0.01 0.01 0.00 0.00 0.00 0.01 0.02 0.03 0.07 0.08 0.05 0.03 0.02 0.02 0.03 0.07 0.13 0.16 0.23 0.34 0.63 0.54 0.21 0.11 0.08 0.08 0.05 0.04 0.04 0.01 0.01 0.01 0.01 0.00 0.00 0.00 0.01 0.01 0.02
0.01 0.03 0.06 0.08 0.05 0.06 0.04 0.03 0.05 0.05 0.03 0.02 0.01 0.00 0.01 0.02 0.04 0.05 0.07 0.05 0.04 0.01 0.01 0.01 0.02 0.03 0.07 0.13 0.22 0.37 0.58 0.62 0.35 0.18 0.10 0.07 0.06 0.10 0.07 0.02 0.01 0.01 0.00 0.00 0.00 0.00 0.00 0.01 0.02
0.02 0.03 0.06 0.08 0.08 0.07 0.05 0.05 0.06 0.05 0.04 0.03 0.03 0.02 0.02 0.04 0.09 0.12 0.13 0.13 0.12 0.09 0.05 0.03 0.03 0.04 0.04 0.06 0.18 0.26 0.32 0.41 0.28 0.27 0.16 0.13 0.21 0.17 0.06 0.02 0.01 0.01 0.00 0.00 0.00 0.00 0.00 0.00 0.00
0.03 0.03 0.08 0.16 0.13 0.06 0.04 0.04 0.04 0.04 0.06 0.05 0.04 0.05 0.06 0.10 0.15 0.18 0.20 0.22 0.23 0.24 0.19 0.11 0.07 0.05 0.06 0.13 0.19 0.24 0.33 0.39 0.41 0.36 0.21 0.23 0.25 0.12 0.02 0.02 0.02 0.02 0.01 0.00 0.00 0.00 0.00 0.00 0.00
0.05 0.03 0.03 0.05 0.06 0.04 0.04 0.04 0.04 0.04 0.05 0.05 0.06 0.08 0.13 0.19 0.21 0.22 0.25 0.28 0.30 0.33 0.37 0.29 0.17 0.14 0.11 0.14 0.20 0.25 0.34 0.40 0.37 0.25 0.14 0.16 0.18 0.10 0.03 0.02 0.02 0.02 0.02 0.01 0.00 0.00 0.00 0.00 0.00
0.05 0.07 0.06 0.06 0.06 0.08 0.06 0.05 0.06 0.06 0.05 0.05 0.09 0.16 0.24 0.31 0.33 0.31 0.28 0.31 0.32 0.37 0.43 0.44 0.35 0.27 0.24 0.23 0.24 0.21 0.38 0.43 0.41 0.33 0.13 0.16 0.14 0.10 0.06 0.02 0.01 0.01 0.01 0.01 0.00 0.00 0.00 0.00 0.01
0.05 0.08 0.07 0.09 0.09 0.09 0.09 0.09 0.10 0.10 0.10 0.08 0.11 0.20 0.28 0.36 0.39 0.40 0.36 0.34 0.32 0.35 0.40 0.44 0.48 0.46 0.40 0.37 0.35 0.32 0.32 0.36 0.40 0.28 0.13 0.17 0.16 0.10 0.09 0.05 0.03 0.02 0.01 0.01 0.00 0.00 0.00 0.01 0.01
0.02 0.04 0.05 0.04 0.05 0.07 0.10 0.12 0.12 0.11 0.12 0.13 0.11 0.16 0.23 0.29 0.33 0.36 0.36 0.34 0.33 0.37 0.40 0.43 0.50 0.57 0.57 0.56 0.61 0.51 0.45 0.47 0.40 0.30 0.21 0.18 0.18 0.14 0.13 0.11 0.07 0.05 0.04 0.03 0.01 0.00 0.00 0.00 0.01
0.00 0.01 0.01 0.02 0.06 0.10 0.11 0.09 0.10 0.12 0.11 0.10 0.09 0.11 0.15 0.20 0.25 0.29 0.33 0.35 0.34 0.36 0.36 0.38 0.42 0.46 0.52 0.58 0.65 0.68 0.65 0.64 0.56 0.50 0.38 0.27 0.27 0.27 0.22 0.17 0.16 0.14 0.10 0.07 0.04 0.01 0.00 0.00 0.00
0.00 0.00 0.01 0.03 0.07 0.08 0.08 0.09 0.08 0.08 0.07 0.05 0.05 0.04 0.07 0.10 0.16 0.20 0.24 0.30 0.33 0.35 0.32 0.30 0.32 0.32 0.35 0.42 0.52 0.63 0.67 0.72 0.73 0.68 0.56 0.52 0.52 0.46 0.38 0.36 0.37 0.37 0.30 0.18 0.09 0.04 0.01 0.01 0.01
0.01 0.01 0.02 0.03 0.05 0.05 0.07 0.09 0.09 0.05 0.03 0.02 0.03 0.02 0.03 0.03 0.06 0.10 0.15 0.23 0.27 0.29 0.30 0.30 0.31 0.30 0.26 0.30 0.43 0.52 0.56 0.61 0.74 0.76 0.77 0.99 1.03 0.83 0.70 0.67 0.59 0.52 0.45 0.37 0.28 0.17 0.09 0.04 0.02
0.02 0.02 0.01 0.01 0.01 0.01 0.02 0.03 0.04 0.02 0.01 0.01 0.01 0.01 0.02 0.01 0.01 0.02 0.03 0.07 0.14 0.15 0.14 0.18 0.24 0.30 0.28 0.24 0.29 0.40 0.47 0.58 0.68 0.83 0.88 1.06 1.12 1.03 0.99 0.92 0.83 0.69 0.58 0.55 0.53 0.45 0.30 0.17 0.07
0.02 0.01 0.01 0.01 0.01 0.01 0.01 0.01 0.03 0.02 0.02 0.01 0.01 0.01 0.01 0.01 0.01 0.01 0.01 0.02 0.02 0.05 0.06 0.10 0.15 0.23 0.30 0.32 0.37 0.50 0.66 0.76 0.83 0.95 0.99 1.08 1.03 1.00 0.93 1.02 1.07 0.93 0.86 0.83 0.84 0.75 0.61 0.40 0.21
0.00 0.00 0.00 0.00 0.00 0.00 0.00 0.01 0.02 0.03 0.03 0.02 0.02 0.03 0.03 0.03 0.02 0.02 0.01 0.01 0.01 0.02 0.05 0.10 0.18 0.31 0.47 0.62 0.82 1.06 1.32 1.42 1.30 1.16 1.21 1.32 1.34 1.26 1.16 1.18 1.26 1.11 1.01 0.96 0.94 0.86 0.92 0.83 0.57
0.00 0.00 0.00 0.01 0.01 0.00 0.00 0.00 0.02 0.05 0.06 0.07 0.08 0.09 0.09 0.07 0.06 0.05 0.04 0.03 0.05 0.09 0.16 0.26 0.38 0.53 0.67 0.86 1.07 1.32 1.54 1.71 1.72 1.73 1.76 1.72 1.63 1.49 1.33 1.25 1.21 1.16 1.10 0.98 0.84 0.88 1.06 1.23 1.08
0.00 0.00 0.00 0.00 0.01 0.01 0.00 0.01 0.04 0.11 0.17 0.22 0.25 0.25 0.23 0.19 0.18 0.17 0.14 0.13 0.16 0.26 0.37 0.48 0.69 0.83 0.93 0.96 1.05 1.26 1.37 1.42 1.55 1.70 1.77 1.74 1.62 1.48 1.34 1.21 1.12 1.10 1.09 1.03 0.98 1.02 1.13 1.27 1.37
0.00 0.00 0.00 0.00 0.01 0.01 0.00 0.04 0.13 0.24 0.32 0.40 0.40 0.36 0.33 0.26 0.23 0.25 0.28 0.28 0.32 0.53 0.76 0.89 0.98 1.04 0.99 0.95 0.95 1.08 1.22 1.30 1.39 1.51 1.56 1.47 1.33 1.29 1.26 1.20 1.07 0.97 0.92 0.91 0.97 1.11 1.12 1.16 1.24
0.00 0.00 0.01 0.01 0.02 0.03 0.03 0.11 0.26 0.28 0.27 0.31 0.33 0.32 0.29 0.21 0.19 0.23 0.32 0.44 0.62 0.87 1.09 1.22 1.20 1.09 0.93 0.88 0.92 0.97 1.08 1.20 1.25 1.23 1.21 1.13 1.06 1.04 1.06 1.04 0.96 0.83 0.75 0.75 0.85 0.94 0.89 0.86 0.91
0.00 0.00 0.03 0.03 0.03 0.05 0.11 0.27 0.38 0.30 0.21 0.16 0.16 0.17 0.19 0.24 0.30 0.31 0.37 0.56 0.83 1.08 1.32 1.57 1.54 1.28 1.07 0.99 1.02 1.00 1.02 1.01 0.95 0.90 0.90 0.89 0.85 0.82 0.75 0.75 0.74 0.70 0.66 0.64 0.68 0.69 0.63 0.59 0.62
0.00 0.01 0.03 0.08 0.05 0.06 0.12 0.26 0.29 0.20 0.14 0.12 0.14 0.18 0.23 0.31 0.40 0.49 0.61 0.70 0.91 1.12 1.44 1.71 1.74 1.51 1.35 1.25 1.17 1.12 0.98 0.85 0.73 0.65 0.61 0.60 0.56 0.53 0.53 0.57 0.60 0.60 0.56 0.52 0.52 0.52 0.49 0.46 0.44
0.01 0.02 0.05 0.13 0.13 0.11 0.15 0.24 0.19 0.11 0.10 0.13 0.19 0.24 0.29 0.37 0.42 0.57 0.83 1.04 1.27 1.22 1.35 1.58 1.49 1.42 1.37 1.35 1.34 1.23 1.03 0.86 0.77 0.68 0.61 0.53 0.49 0.44 0.46 0.46 0.45 0.45 0.44 0.43 0.45 0.46 0.46 0.43 0.42
0.03 0.05 0.06 0.12 0.17 0.20 0.28 0.33 0.22 0.18 0.20 0.26 0.32 0.35 0.38 0.45 0.50 0.64 0.81 0.96 1.15 1.26 1.28 1.32 1.28 1.28 1.24 1.14 1.10 0.97 0.78 0.66 0.62 0.62 0.56 0.46 0.42 0.41 0.40 0.35 0.35 0.43 0.42 0.38 0.42 0.43 0.41 0.40 0.40
0.10 0.12 0.12 0.20 0.26 0.31 0.45 0.50 0.33 0.33 0.38 0.45 0.52 0.54 0.58 0.59 0.62 0.72 0.80 0.94 1.03 1.04 1.09 1.16 1.09 1.05 1.00 0.89 0.80 0.70 0.54 0.48 0.52 0.51 0.44 0.33 0.31 0.31 0.36 0.34 0.32 0.42 0.52 0.54 0.51 0.47 0.41 0.37 0.32

GEFSSGP_prec_meanprecacc_042.txt.gz
Total_Precipitation_Accumulation
0.00 0.02 0.02 0.05 0.23 0.10 0.00 0.00 0.00 0.00 0.00 0.00 0.00 0.00 0.00 0.01 0.07 0.26 0.05 0.00 0.00 0.00 0.00 0.03 0.05 0.05 0.05 0.04 0.03 0.05 0.07 0.06 0.05 0.08 0.06 0.06 0.05 0.04 0.05 0.05 0.06 0.06 0.07 0.10 0.16 0.26 0.30 0.31 0.39
0.00 0.02 0.03 0.10 0.13 0.02 0.00 0.00 0.00 0.00 0.00 0.00 0.00 0.00 0.00 0.00 0.00 0.01 0.00 0.00 0.00 0.00 0.00 0.01 0.03 0.07 0.09 0.06 0.05 0.07 0.08 0.06 0.06 0.08 0.07 0.07 0.05 0.04 0.04 0.04 0.04 0.05 0.06 0.07 0.12 0.23 0.31 0.33 0.35
0.00 0.01 0.05 0.11 0.03 0.00 0.00 0.00 0.00 0.00 0.00 0.00 0.00 0.00 0.00 0.00 0.00 0.00 0.01 0.01 0.00 0.01 0.01 0.04 0.07 0.14 0.17 0.11 0.10 0.14 0.11 0.09 0.08 0.07 0.07 0.09 0.06 0.07 0.04 0.02 0.04 0.04 0.06 0.07 0.09 0.16 0.26 0.31 0.34
0.00 0.01 0.05 0.04 0.00 0.00 0.00 0.00 0.00 0.00 0.00 0.00 0.00 0.00 0.00 0.00 0.00 0.00 0.01 0.01 0.00 0.02 0.04 0.09 0.13 0.20 0.23 0.13 0.15 0.22 0.16 0.13 0.09 0.05 0.06 0.08 0.06 0.06 0.02 0.02 0.04 0.04 0.04 0.06 0.07 0.13 0.19 0.25 0.31
0.01 0.02 0.04 0.03 0.01 0.00 0.00 0.00 0.01 0.01 0.01 0.00 0.00 0.00 0.00 0.00 0.00 0.00 0.00 0.00 0.01 0.02 0.05 0.10 0.17 0.19 0.20 0.18 0.23 0.31 0.25 0.19 0.10 0.05 0.06 0.06 0.05 0.05 0.03 0.04 0.03 0.03 0.03 0.03 0.04 0.07 0.11 0.16 0.21
0.02 0.04 0.08 0.07 0.05 0.02 0.02 0.01 0.01 0.02 0.01 0.00 0.00 0.00 0.01 0.01 0.01 0.01 0.01 0.02 0.02 0.02 0.03 0.10 0.14 0.14 0.18 0.21 0.28 0.36 0.36 0.25 0.12 0.06 0.07 0.05 0.05 0.04 0.04 0.05 0.04 0.03 0.01 0.01 0.02 0.04 0.06 0.07 0.10
0.01 0.05 0.10 0.06 0.05 0.04 0.02 0.01 0.01 0.01 0.00 0.00 0.00 0.01 0.02 0.01 0.02 0.02 0.05 0.09 0.07 0.04 0.04 0.09 0.11 0.10 0.15 0.24 0.26 0.39 0.50 0.34 0.17 0.10 0.10 0.08 0.05 0.04 0.04 0.03 0.02 0.01 0.01 0.00 0.01 0.02 0.03 0.04 0.04
0.01 0.02 0.06 0.06 0.06 0.09 0.03 0.01 0.02 0.02 0.01 0.01 0.01 0.02 0.06 0.05 0.03 0.03 0.08 0.09 0.05 0.04 0.02 0.04 0.08 0.12 0.20 0.26 0.35 0.42 0.70 0.61 0.29 0.18 0.12 0.10 0.05 0.04 0.04 0.02 0.01 0.01 0.01 0.00 0.00 0.00 0.01 0.02 0.03
0.01 0.04 0.13 0.15 0.08 0.10 0.04 0.04 0.05 0.05 0.04 0.03 0.03 0.03 0.05 0.06 0.06 0.07 0.09 0.07 0.05 0.02 0.02 0.03 0.06 0.08 0.13 0.20 0.37 0.51 0.71 0.77 0.47 0.28 0.16 0.10 0.08 0.14 0.12 0.05 0.02 0.01 0.00 0.00 0.00 0.01 0.01 0.01 0.03
0.02 0.06 0.16 0.12 0.09 0.07 0.05 0.06 0.06 0.07 0.06 0.05 0.07 0.08 0.07 0.09 0.15 0.17 0.19 0.21 0.18 0.14 0.08 0.06 0.06 0.07 0.08 0.10 0.26 0.43 0.51 0.70 0.49 0.51 0.40 0.27 0.33 0.34 0.19 0.12 0.05 0.02 0.00 0.00 0.00 0.00 0.01 0.00 0.01
0.03 0.03 0.09 0.16 0.13 0.06 0.04 0.05 0.05 0.06 0.08 0.08 0.09 0.13 0.17 0.19 0.24 0.26 0.27 0.29 0.30 0.31 0.26 0.17 0.13 0.11 0.13 0.21 0.29 0.41 0.52 0.63 0.66 0.69 0.63 0.64 0.58 0.33 0.14 0.17 0.13 0.04 0.01 0.00 0.00 0.00 0.00 0.00 0.00
0.05 0.03 0.03 0.05 0.06 0.04 0.04 0.04 0.04 0.05 0.05 0.06 0.09 0.13 0.21 0.28 0.30 0.30 0.32 0.35 0.36 0.38 0.44 0.36 0.24 0.21 0.20 0.25 0.34 0.44 0.54 0.62 0.63 0.48 0.44 0.53 0.54 0.34 0.17 0.19 0.18 0.11 0.06 0.02 0.01 0.00 0.00 0.00 0.00
0.05 0.07 0.06 0.06 0.06 0.08 0.06 0.05 0.06 0.06 0.05 0.06 0.10 0.18 0.28 0.37 0.39 0.38 0.35 0.37 0.38 0.43 0.50 0.52 0.42 0.33 0.32 0.34 0.38 0.37 0.58 0.70 0.77 0.62 0.37 0.46 0.46 0.35 0.24 0.13 0.12 0.09 0.06 0.02 0.01 0.00 0.00 0.00 0.01
0.05 0.08 0.07 0.09 0.09 0.09 0.09 0.09 0.10 0.10 0.10 0.08 0.12 0.20 0.29 0.38 0.42 0.44 0.40 0.38 0.35 0.39 0.45 0.50 0.53 0.51 0.47 0.45 0.45 0.42 0.44 0.51 0.57 0.44 0.28 0.40 0.45 0.35 0.31 0.18 0.13 0.09 0.05 0.03 0.01 0.00 0.00 0.01 0.01
0.02 0.04 0.05 0.04 0.05 0.07 0.11 0.13 0.12 0.11 0.12 0.13 0.11 0.16 0.23 0.29 0.33 0.37 0.37 0.35 0.34 0.39 0.41 0.46 0.53 0.60 0.61 0.61 0.69 0.61 0.55 0.58 0.54 0.45 0.36 0.37 0.42 0.38 0.37 0.29 0.20 0.14 0.10 0.07 0.02 0.00 0.00 0.01 0.01
0.00 0.02 0.06 0.04 0.07 0.11 0.13 0.13 0.10 0.12 0.11 0.11 0.09 0.11 0.15 0.20 0.25 0.29 0.33 0.35 0.35 0.37 0.37 0.39 0.43 0.48 0.53 0.60 0.67 0.72 0.71 0.73 0.67 0.65 0.53 0.44 0.50 0.54 0.52 0.43 0.31 0.24 0.24 0.19 0.10 0.02 0.01 0.00 0.00
0.00 0.02 0.07 0.07 0.08 0.09 0.10 0.11 0.08 0.08 0.07 0.05 0.05 0.05 0.07 0.10 0.16 0.20 0.24 0.30 0.34 0.35 0.32 0.31 0.32 0.32 0.35 0.42 0.53 0.65 0.70 0.77 0.82 0.81 0.74 0.69 0.67 0.65 0.65 0.64 0.57 0.52 0.46 0.34 0.20 0.09 0.03 0.01 0.01
0.02 0.02 0.03 0.04 0.05 0.05 0.07 0.09 0.09 0.05 0.03 0.02 0.03 0.03 0.03 0.03 0.06 0.10 0.15 0.23 0.27 0.29 0.30 0.30 0.31 0.30 0.26 0.30 0.43 0.53 0.58 0.64 0.78 0.84 0.88 1.13 1.19 0.96 0.85 0.85 0.77 0.71 0.66 0.56 0.42 0.28 0.15 0.07 0.04
0.02 0.02 0.01 0.02 0.01 0.01 0.02 0.03 0.04 0.02 0.01 0.01 0.01 0.01 0.02 0.01 0.01 0.02 0.03 0.07 0.14 0.15 0.14 0.18 0.24 0.30 0.28 0.24 0.30 0.41 0.49 0.60 0.71 0.87 0.94 1.15 1.21 1.12 1.09 1.05 0.98 0.87 0.80 0.75 0.71 0.63 0.45 0.26 0.11
0.02 0.01 0.01 0.01 0.01 0.01 0.01 0.01 0.03 0.02 0.02 0.01 0.01 0.01 0.01 0.01 0.01 0.01 0.01 0.02 0.02 0.05 0.07 0.10 0.15 0.23 0.31 0.33 0.37 0.50 0.67 0.78 0.85 0.98 1.04 1.15 1.13 1.09 1.01 1.12 1.19 1.09 1.05 1.04 1.04 0.98 0.84 0.56 0.30
0.00 0.00 0.00 0.00 0.00 0.00 0.00 0.01 0.02 0.03 0.03 0.02 0.02 0.03 0.03 0.03 0.02 0.02 0.01 0.02 0.02 0.03 0.05 0.10 0.19 0.32 0.48 0.64 0.84 1.08 1.35 1.45 1.34 1.20 1.26 1.38 1.43 1.36 1.26 1.30 1.39 1.27 1.23 1.21 1.17 1.08 1.15 1.05 0.73
0.00 0.00 0.00 0.01 0.01 0.00 0.00 0.01 0.02 0.05 0.06 0.07 0.08 0.09 0.09 0.07 0.06 0.06 0.04 0.05 0.07 0.11 0.17 0.28 0.40 0.56 0.72 0.92 1.14 1.38 1.61 1.76 1.78 1.80 1.82 1.78 1.71 1.57 1.44 1.40 1.41 1.38 1.35 1.24 1.13 1.13 1.28 1.47 1.29
0.00 0.00 0.00 0.00 0.01 0.01 0.00 0.01 0.05 0.11 0.17 0.22 0.25 0.25 0.23 0.19 0.19 0.18 0.16 0.15 0.18 0.28 0.41 0.52 0.75 0.92 1.05 1.10 1.20 1.41 1.52 1.58 1.68 1.82 1.86 1.82 1.70 1.57 1.43 1.35 1.32 1.34 1.35 1.30 1.30 1.34 1.42 1.52 1.61
0.00 0.00 0.00 0.00 0.01 0.01 0.00 0.04 0.14 0.24 0.32 0.40 0.40 0.36 0.33 0.26 0.23 0.26 0.29 0.30 0.35 0.57 0.81 0.95 1.06 1.16 1.14 1.12 1.13 1.26 1.40 1.48 1.54 1.65 1.70 1.61 1.45 1.39 1.36 1.32 1.24 1.16 1.15 1.17 1.27 1.43 1.43 1.45 1.52
0.00 0.00 0.01 0.01 0.02 0.03 0.03 0.11 0.26 0.28 0.27 0.31 0.34 0.33 0.29 0.22 0.19 0.23 0.33 0.45 0.65 0.90 1.13 1.28 1.28 1.18 1.03 1.01 1.07 1.12 1.26 1.40 1.42 1.40 1.40 1.32 1.22 1.18 1.19 1.18 1.12 0.99 0.93 0.97 1.10 1.23 1.21 1.20 1.22
0.00 0.00 0.03 0.04 0.03 0.06 0.11 0.27 0.38 0.30 0.21 0.17 0.18 0.18 0.20 0.24 0.30 0.32 0.38 0.57 0.85 1.12 1.37 1.64 1.61 1.37 1.15 1.10 1.15 1.16 1.23 1.28 1.23 1.14 1.12 1.09 1.03 0.98 0.90 0.90 0.89 0.87 0.84 0.82 0.87 0.92 0.91 0.92 0.96
0.00 0.01 0.03 0.08 0.05 0.06 0.12 0.26 0.29 0.20 0.15 0.13 0.15 0.18 0.24 0.31 0.41 0.49 0.61 0.71 0.91 1.14 1.47 1.76 1.81 1.61 1.45 1.36 1.30 1.29 1.18 1.08 0.97 0.89 0.84 0.83 0.78 0.73 0.69 0.71 0.75 0.79 0.71 0.64 0.65 0.67 0.68 0.73 0.74
0.01 0.02 0.05 0.13 0.13 0.12 0.15 0.24 0.20 0.11 0.10 0.13 0.19 0.24 0.29 0.37 0.43 0.58 0.84 1.05 1.27 1.23 1.37 1.60 1.54 1.48 1.45 1.47 1.45 1.35 1.18 1.04 0.98 0.87 0.82 0.74 0.72 0.67 0.67 0.66 0.59 0.59 0.58 0.57 0.59 0.60 0.61 0.59 0.60
0.03 0.05 0.06 0.12 0.17 0.20 0.28 0.34 0.22 0.18 0.20 0.26 0.32 0.35 0.38 0.46 0.51 0.65 0.82 0.97 1.16 1.27 1.29 1.33 1.32 1.33 1.29 1.22 1.17 1.05 0.85 0.74 0.74 0.74 0.68 0.59 0.59 0.55 0.54 0.50 0.49 0.55 0.55 0.51 0.55 0.55 0.53 0.52 0.52
0.10 0.12 0.12 0.20 0.26 0.31 0.45 0.50 0.33 0.33 0.38 0.45 0.52 0.54 0.58 0.59 0.62 0.72 0.80 0.95 1.04 1.05 1.09 1.17 1.10 1.09 1.04 0.93 0.83 0.72 0.57 0.51 0.56 0.56 0.50 0.41 0.42 0.40 0.46 0.47 0.44 0.51 0.61 0.62 0.61 0.57 0.50 0.45 0.42

GEFSSGP_prec_meanprecacc_048.txt.gz
Total_Precipitation_Accumulation
0.02 0.07 0.14 0.19 0.34 0.14 0.01 0.00 0.00 0.00 0.00 0.00 0.00 0.00 0.00 0.01 0.09 0.30 0.09 0.04 0.02 0.00 0.00 0.03 0.05 0.05 0.05 0.04 0.03 0.05 0.07 0.06 0.05 0.08 0.06 0.07 0.05 0.04 0.05 0.05 0.06 0.06 0.07 0.10 0.16 0.26 0.31 0.31 0.40
0.05 0.14 0.18 0.26 0.19 0.02 0.02 0.01 0.00 0.00 0.00 0.00 0.00 0.00 0.00 0.00 0.01 0.03 0.07 0.10 0.02 0.00 0.00 0.01 0.03 0.07 0.09 0.06 0.05 0.07 0.08 0.06 0.06 0.08 0.07 0.07 0.05 0.04 0.04 0.04 0.04 0.05 0.06 0.07 0.12 0.23 0.31 0.34 0.36
0.10 0.15 0.21 0.22 0.05 0.01 0.02 0.01 0.01 0.01 0.00 0.00 0.00 0.00 0.00 0.01 0.01 0.03 0.06 0.06 0.02 0.01 0.01 0.04 0.07 0.14 0.17 0.11 0.11 0.14 0.11 0.09 0.08 0.07 0.07 0.09 0.06 0.07 0.04 0.02 0.04 0.04 0.06 0.07 0.09 0.16 0.26 0.32 0.34
0.08 0.17 0.21 0.11 0.03 0.03 0.03 0.02 0.02 0.01 0.02 0.00 0.00 0.00 0.01 0.02 0.03 0.04 0.05 0.05 0.02 0.03 0.05 0.09 0.13 0.20 0.23 0.13 0.15 0.22 0.16 0.13 0.09 0.05 0.06 0.08 0.06 0.06 0.02 0.02 0.05 0.04 0.04 0.06 0.07 0.13 0.20 0.26 0.32
0.07 0.14 0.13 0.08 0.07 0.08 0.07 0.05 0.03 0.03 0.05 0.01 0.00 0.01 0.02 0.03 0.04 0.05 0.08 0.06 0.05 0.05 0.06 0.10 0.18 0.20 0.21 0.18 0.23 0.32 0.25 0.19 0.10 0.06 0.06 0.06 0.05 0.05 0.03 0.04 0.03 0.03 0.03 0.03 0.04 0.07 0.11 0.16 0.22
0.10 0.21 0.19 0.16 0.17 0.18 0.17 0.10 0.06 0.05 0.04 0.02 0.01 0.02 0.04 0.06 0.08 0.10 0.11 0.12 0.12 0.10 0.09 0.14 0.19 0.18 0.20 0.22 0.28 0.36 0.36 0.25 0.12 0.06 0.07 0.05 0.05 0.04 0.04 0.05 0.04 0.03 0.01 0.01 0.02 0.04 0.06 0.07 0.10
0.08 0.20 0.22 0.17 0.19 0.32 0.23 0.10 0.06 0.06 0.04 0.06 0.05 0.06 0.09 0.09 0.12 0.14 0.19 0.26 0.27 0.26 0.22 0.25 0.24 0.23 0.26 0.32 0.31 0.43 0.53 0.36 0.18 0.11 0.10 0.08 0.05 0.04 0.04 0.03 0.02 0.01 0.01 0.00 0.01 0.02 0.03 0.04 0.05
0.03 0.08 0.17 0.24 0.29 0.42 0.25 0.07 0.06 0.05 0.04 0.07 0.07 0.10 0.20 0.20 0.18 0.20 0.24 0.27 0.26 0.28 0.28 0.29 0.32 0.34 0.39 0.43 0.51 0.57 0.81 0.69 0.33 0.20 0.14 0.11 0.06 0.05 0.04 0.02 0.01 0.01 0.01 0.00 0.00 0.00 0.01 0.02 0.04
0.03 0.09 0.31 0.56 0.53 0.40 0.22 0.10 0.09 0.09 0.07 0.07 0.09 0.15 0.20 0.21 0.23 0.22 0.25 0.25 0.24 0.21 0.24 0.29 0.34 0.36 0.38 0.42 0.57 0.72 0.89 0.91 0.58 0.36 0.22 0.13 0.10 0.16 0.13 0.05 0.02 0.01 0.00 0.00 0.00 0.01 0.01 0.02 0.03
0.04 0.13 0.35 0.58 0.46 0.23 0.17 0.14 0.12 0.13 0.11 0.10 0.13 0.18 0.20 0.22 0.29 0.32 0.34 0.39 0.37 0.34 0.30 0.31 0.33 0.35 0.35 0.34 0.52 0.68 0.70 0.83 0.59 0.60 0.49 0.34 0.37 0.37 0.21 0.13 0.09 0.05 0.01 0.00 0.00 0.00 0.01 0.01 0.01
0.05 0.10 0.17 0.26 0.22 0.11 0.09 0.10 0.10 0.10 0.11 0.10 0.12 0.19 0.26 0.30 0.35 0.38 0.40 0.43 0.45 0.46 0.42 0.34 0.34 0.35 0.37 0.44 0.56 0.71 0.78 0.82 0.81 0.79 0.72 0.72 0.65 0.38 0.20 0.23 0.20 0.11 0.05 0.01 0.00 0.00 0.00 0.00 0.00
0.07 0.07 0.07 0.10 0.10 0.10 0.08 0.06 0.06 0.06 0.06 0.06 0.09 0.15 0.24 0.32 0.34 0.34 0.37 0.40 0.42 0.46 0.52 0.45 0.33 0.32 0.32 0.38 0.53 0.69 0.81 0.90 0.87 0.68 0.60 0.67 0.67 0.45 0.27 0.30 0.29 0.20 0.11 0.04 0.01 0.00 0.00 0.00 0.00
0.07 0.09 0.08 0.08 0.09 0.11 0.08 0.06 0.06 0.07 0.06 0.06 0.11 0.19 0.29 0.38 0.40 0.40 0.36 0.39 0.39 0.45 0.52 0.55 0.46 0.38 0.36 0.40 0.47 0.53 0.80 0.94 1.02 0.96 0.67 0.73 0.66 0.51 0.37 0.28 0.30 0.25 0.19 0.10 0.03 0.01 0.01 0.01 0.01
0.06 0.09 0.08 0.10 0.10 0.11 0.10 0.09 0.10 0.10 0.10 0.09 0.12 0.21 0.30 0.38 0.43 0.44 0.41 0.38 0.36 0.40 0.46 0.51 0.54 0.53 0.49 0.48 0.50 0.48 0.53 0.64 0.73 0.64 0.52 0.63 0.68 0.55 0.46 0.34 0.31 0.33 0.30 0.25 0.14 0.06 0.04 0.03 0.02
0.03 0.06 0.09 0.10 0.10 0.11 0.13 0.14 0.13 0.12 0.13 0.14 0.12 0.17 0.23 0.30 0.33 0.37 0.37 0.35 0.34 0.39 0.42 0.46 0.53 0.60 0.62 0.62 0.70 0.62 0.58 0.63 0.61 0.55 0.54 0.56 0.60 0.59 0.61 0.52 0.40 0.34 0.39 0.40 0.29 0.19 0.13 0.06 0.03
0.03 0.09 0.17 0.13 0.15 0.20 0.22 0.18 0.11 0.13 0.11 0.11 0.09 0.11 0.16 0.20 0.25 0.29 0.33 0.35 0.35 0.37 0.37 0.39 0.43 0.48 0.53 0.60 0.67 0.72 0.72 0.74 0.70 0.71 0.64 0.58 0.66 0.74 0.78 0.72 0.56 0.45 0.50 0.51 0.43 0.32 0.23 0.11 0.05
0.04 0.08 0.13 0.11 0.12 0.14 0.13 0.12 0.09 0.08 0.07 0.06 0.05 0.05 0.07 0.10 0.16 0.20 0.24 0.30 0.34 0.35 0.32 0.31 0.32 0.32 0.35 0.42 0.53 0.65 0.71 0.78 0.83 0.83 0.79 0.76 0.78 0.78 0.84 0.89 0.84 0.76 0.72 0.67 0.57 0.40 0.28 0.17 0.09
0.03 0.03 0.03 0.05 0.06 0.07 0.08 0.10 0.09 0.05 0.03 0.02 0.03 0.03 0.03 0.03 0.06 0.10 0.15 0.23 0.27 0.29 0.30 0.30 0.31 0.30 0.26 0.30 0.43 0.53 0.58 0.65 0.80 0.86 0.91 1.17 1.25 1.05 0.95 0.97 0.92 0.88 0.87 0.81 0.78 0.67 0.45 0.28 0.17
0.02 0.02 0.01 0.02 0.02 0.02 0.02 0.03 0.04 0.02 0.01 0.01 0.01 0.01 0.02 0.01 0.01 0.02 0.03 0.08 0.14 0.15 0.14 0.18 0.24 0.30 0.28 0.24 0.30 0.41 0.49 0.61 0.72 0.88 0.96 1.18 1.26 1.17 1.17 1.14 1.07 0.98 0.92 0.91 0.97 0.99 0.74 0.50 0.30
0.02 0.01 0.01 0.01 0.01 0.01 0.01 0.01 0.03 0.02 0.02 0.01 0.01 0.01 0.01 0.01 0.01 0.01 0.01 0.02 0.02 0.05 0.07 0.10 0.15 0.23 0.31 0.33 0.38 0.51 0.68 0.79 0.86 0.99 1.05 1.18 1.16 1.13 1.07 1.18 1.25 1.16 1.15 1.18 1.23 1.23 1.11 0.79 0.48
0.00 0.00 0.00 0.00 0.00 0.00 0.00 0.01 0.02 0.03 0.03 0.02 0.02 0.03 0.03 0.03 0.02 0.02 0.01 0.02 0.02 0.03 0.05 0.11 0.19 0.32 0.49 0.64 0.84 1.09 1.36 1.47 1.36 1.21 1.27 1.41 1.47 1.40 1.31 1.36 1.46 1.34 1.32 1.31 1.30 1.25 1.36 1.26 0.92
0.00 0.00 0.00 0.01 0.01 0.00 0.00 0.01 0.02 0.05 0.06 0.07 0.08 0.09 0.09 0.07 0.06 0.06 0.04 0.05 0.07 0.11 0.17 0.28 0.40 0.57 0.73 0.93 1.15 1.39 1.62 1.78 1.80 1.82 1.85 1.81 1.76 1.63 1.51 1.48 1.49 1.47 1.48 1.37 1.26 1.29 1.46 1.66 1.49
0.00 0.00 0.00 0.00 0.01 0.01 0.00 0.01 0.05 0.11 0.17 0.22 0.25 0.25 0.23 0.19 0.19 0.18 0.16 0.15 0.18 0.28 0.41 0.53 0.76 0.92 1.06 1.12 1.22 1.43 1.54 1.61 1.72 1.87 1.91 1.88 1.77 1.65 1.52 1.45 1.44 1.46 1.51 1.47 1.47 1.54 1.67 1.79 1.86
0.00 0.00 0.00 0.00 0.01 0.01 0.00 0.05 0.14 0.24 0.32 0.40 0.40 0.36 0.33 0.26 0.23 0.26 0.29 0.30 0.35 0.57 0.81 0.96 1.06 1.16 1.15 1.13 1.15 1.29 1.43 1.51 1.59 1.72 1.77 1.70 1.54 1.47 1.45 1.43 1.36 1.28 1.32 1.40 1.53 1.71 1.74 1.78 1.88
0.00 0.00 0.01 0.01 0.02 0.03 0.03 0.12 0.26 0.28 0.27 0.31 0.34 0.33 0.29 0.22 0.19 0.23 0.33 0.45 0.65 0.90 1.14 1.28 1.28 1.18 1.04 1.02 1.09 1.15 1.29 1.43 1.46 1.46 1.48 1.43 1.34 1.29 1.29 1.30 1.24 1.12 1.09 1.18 1.34 1.50 1.51 1.53 1.57
0.00 0.00 0.03 0.04 0.03 0.06 0.11 0.27 0.38 0.30 0.21 0.17 0.18 0.18 0.20 0.24 0.30 0.32 0.38 0.57 0.85 1.12 1.37 1.64 1.62 1.38 1.16 1.10 1.17 1.18 1.26 1.32 1.29 1.23 1.23 1.23 1.17 1.12 1.04 1.06 1.06 1.03 1.00 1.01 1.07 1.13 1.16 1.21 1.31
0.00 0.01 0.03 0.08 0.05 0.06 0.12 0.27 0.29 0.20 0.15 0.13 0.15 0.18 0.24 0.31 0.41 0.49 0.61 0.71 0.91 1.14 1.47 1.76 1.82 1.61 1.46 1.37 1.31 1.31 1.21 1.12 1.03 0.95 0.94 0.94 0.94 0.88 0.83 0.90 0.96 1.02 0.92 0.84 0.87 0.87 0.90 0.98 1.04
0.01 0.02 0.05 0.13 0.13 0.12 0.15 0.24 0.20 0.11 0.10 0.13 0.19 0.24 0.29 0.37 0.43 0.58 0.84 1.05 1.27 1.23 1.37 1.60 1.54 1.48 1.45 1.47 1.46 1.35 1.20 1.06 1.02 0.94 0.90 0.84 0.88 0.82 0.82 0.85 0.83 0.81 0.77 0.78 0.82 0.85 0.89 0.87 0.88
0.03 0.05 0.06 0.12 0.17 0.20 0.28 0.34 0.22 0.18 0.20 0.26 0.32 0.35 0.38 0.46 0.51 0.65 0.82 0.97 1.16 1.27 1.29 1.33 1.32 1.33 1.29 1.22 1.18 1.06 0.86 0.75 0.75 0.77 0.72 0.65 0.68 0.65 0.67 0.64 0.66 0.73 0.71 0.68 0.74 0.75 0.73 0.75 0.79
0.10 0.12 0.12 0.20 0.26 0.31 0.45 0.50 0.33 0.33 0.38 0.45 0.52 0.54 0.58 0.59 0.62 0.72 0.80 0.95 1.04 1.05 1.09 1.17 1.10 1.09 1.04 0.93 0.84 0.72 0.57 0.51 0.56 0.57 0.52 0.44 0.46 0.44 0.51 0.54 0.52 0.63 0.76 0.78 0.77 0.73 0.66 0.62 0.60